Total_Precipitation_Accumulation
1.17 1.20 1.30 1.38 1.37 1.34 1.34 1.31 1.43 1.48 1.53 1.55 1.59 1.65 1.65 1.76 2.01 2.29 2.18 2.14 2.17 2.22 2.26 2.43 2.53 2.71 2.72 2.58 2.56 2.57 2.72 2.91 2.67 2.29 2.12 2.00 1.83 1.65 1.59 1.47 1.39 1.39 1.37
1.00 1.04 1.10 1.23 1.23 1.23 1.26 1.40 1.49 1.48 1.43 1.35 1.42 1.48 1.44 1.56 1.82 2.12 2.28 2.35 2.43 2.40 2.45 2.64 2.69 2.72 2.67 2.56 2.59 2.58 2.59 2.82 2.74 2.43 2.30 2.16 1.97 1.76 1.66 1.58 1.38 1.29 1.34
0.90 0.92 0.97 1.12 1.28 1.36 1.40 1.46 1.55 1.57 1.52 1.52 1.54 1.50 1.63 1.72 1.75 1.92 2.11 2.22 2.30 2.32 2.46 2.53 2.51 2.63 2.56 2.53 2.41 2.40 2.44 2.62 2.83 2.63 2.49 2.47 2.29 2.03 1.89 1.71 1.55 1.55 1.30
0.79 0.93 1.01 1.21 1.43 1.53 1.54 1.56 1.57 1.59 1.58 1.63 1.63 1.65 1.76 1.79 1.75 1.84 2.01 2.14 2.21 2.23 2.32 2.43 2.49 2.50 2.54 2.66 2.53 2.53 2.69 2.81 2.90 2.83 2.70 2.76 2.69 2.44 2.21 1.98 1.78 1.66 1.49
0.91 1.06 1.21 1.43 1.51 1.56 1.63 1.65 1.71 1.73 1.64 1.73 1.79 1.75 1.75 1.66 1.58 1.83 1.99 2.02 2.19 2.24 2.22 2.19 2.29 2.51 2.57 2.60 2.40 2.53 2.74 2.75 2.71 2.72 2.70 2.84 2.85 2.71 2.38 2.07 1.93 1.89 1.74
1.19 1.33 1.42 1.52 1.59 1.55 1.55 1.57 1.72 1.78 1.84 1.95 1.98 1.96 1.87 1.62 1.82 1.92 1.96 2.04 2.15 2.18 2.19 2.09 2.01 2.05 2.11 2.23 2.24 2.25 2.39 2.52 2.61 2.62 2.61 2.70 2.74 2.70 2.57 2.35 2.19 2.08 1.94
1.50 1.67 1.69 1.67 1.71 1.71 1.74 1.76 1.78 1.90 2.02 2.04 2.00 2.01 1.97 1.99 2.01 1.80 1.74 1.69 1.75 1.81 1.83 1.81 1.58 1.49 1.79 1.88 2.05 2.04 1.94 1.97 2.08 2.29 2.39 2.39 2.56 2.66 2.73 2.50 2.42 2.26 2.04
1.75 1.86 1.95 1.98 2.06 2.13 2.21 2.19 2.21 2.25 2.30 2.23 2.14 2.15 2.19 2.18 2.20 1.88 1.76 1.64 1.62 1.62 1.61 1.59 1.59 1.59 1.65 1.81 1.89 1.85 1.77 1.73 1.77 1.81 1.90 2.12 2.35 2.60 2.71 2.64 2.66 2.51 2.23
2.01 2.15 2.22 2.28 2.31 2.35 2.38 2.46 2.57 2.70 2.73 2.62 2.56 2.59 2.59 2.66 2.67 2.30 2.14 1.89 1.81 1.71 1.73 1.78 1.80 1.65 1.71 1.73 1.76 1.72 1.68 1.70 1.74 1.74 1.73 1.89 2.09 2.26 2.54 2.59 2.53 2.45 2.19
2.16 2.33 2.52 2.63 2.65 2.63 2.68 2.82 2.98 3.14 3.16 3.14 3.13 3.13 3.04 3.01 3.00 2.62 2.45 2.19 2.13 2.06 2.06 1.94 1.84 1.64 1.58 1.53 1.54 1.62 1.55 1.53 1.68 1.71 1.66 1.72 1.86 2.03 2.29 2.32 2.28 2.36 2.18
2.41 2.53 2.66 2.76 2.89 2.95 3.04 3.12 3.28 3.39 3.34 3.28 3.23 3.19 3.11 3.05 2.95 2.63 2.46 2.25 2.26 2.27 2.14 2.02 1.88 1.74 1.53 1.49 1.45 1.45 1.48 1.57 1.68 1.73 1.79 1.86 1.99 2.09 2.11 2.14 2.19 2.16 2.14
2.65 2.77 2.82 2.83 2.74 2.74 2.98 3.17 3.36 3.56 3.51 3.43 3.47 3.35 3.22 3.10 2.83 2.59 2.40 2.25 2.31 2.34 2.25 2.13 2.02 1.88 1.63 1.56 1.42 1.40 1.45 1.43 1.51 1.62 1.69 1.78 1.89 2.01 2.12 2.22 2.26 2.17 2.05
2.62 2.67 2.78 2.82 2.86 2.92 3.11 3.27 3.46 3.56 3.50 3.38 3.37 3.31 3.12 2.95 2.82 2.56 2.32 2.22 2.24 2.18 2.24 2.31 2.13 1.98 1.77 1.61 1.57 1.55 1.46 1.37 1.50 1.62 1.59 1.62 1.73 1.92 2.20 2.40 2.49 2.45 2.18
2.26 2.30 2.31 2.43 2.60 2.83 3.13 3.23 3.28 3.32 3.33 3.30 3.19 3.05 3.02 3.00 2.94 2.69 2.38 2.13 2.08 2.12 2.16 2.23 2.10 1.94 1.72 1.57 1.58 1.50 1.35 1.33 1.44 1.53 1.59 1.64 1.78 1.90 2.07 2.24 2.46 2.52 2.34
1.98 2.00 2.11 2.21 2.39 2.60 2.82 2.99 2.96 2.98 3.16 3.04 2.83 2.66 2.54 2.46 2.55 2.48 2.23 2.09 2.05 2.12 2.17 2.21 2.14 2.02 1.87 1.71 1.62 1.62 1.60 1.54 1.47 1.48 1.63 1.68 1.71 1.72 1.80 1.98 2.24 2.35 2.19
1.77 1.78 1.82 1.87 2.02 2.20 2.36 2.49 2.52 2.30 2.36 2.26 2.09 1.95 1.83 1.80 1.84 1.74 1.61 1.56 1.65 1.82 1.90 2.06 2.09 1.99 1.89 1.84 1.81 1.77 1.73 1.64 1.55 1.56 1.60 1.64 1.65 1.65 1.69 1.80 1.98 2.15 2.11
1.88 1.82 1.80 1.83 1.94 2.01 2.04 2.09 2.13 2.00 1.86 1.79 1.65 1.50 1.38 1.37 1.40 1.42 1.45 1.47 1.55 1.62 1.63 1.81 1.84 1.82 1.81 1.83 1.84 1.77 1.69 1.66 1.69 1.64 1.58 1.62 1.68 1.69 1.74 1.83 1.89 2.00 2.06
2.15 2.09 1.96 1.92 1.94 1.89 1.88 1.94 2.04 2.04 1.91 1.69 1.49 1.27 1.17 1.18 1.24 1.38 1.56 1.52 1.55 1.56 1.53 1.64 1.65 1.67 1.75 1.81 1.83 1.81 1.73 1.73 1.78 1.75 1.71 1.74 1.83 1.86 1.82 1.83 1.90 1.93 2.01
2.06 2.05 1.94 1.93 1.97 2.05 2.01 2.00 2.07 2.07 2.10 1.99 1.71 1.46 1.33 1.29 1.34 1.48 1.56 1.46 1.50 1.50 1.51 1.61 1.66 1.67 1.72 1.81 1.84 1.86 1.86 1.89 1.87 1.89 1.88 1.86 1.94 2.01 1.89 1.82 1.88 2.01 2.01
1.79 1.87 1.77 1.77 1.79 1.93 1.98 1.95 1.98 2.10 2.10 2.00 1.81 1.55 1.31 1.18 1.18 1.38 1.49 1.58 1.65 1.67 1.68 1.69 1.76 1.79 1.79 1.81 1.84 1.85 1.88 1.92 1.90 1.90 1.92 1.96 1.99 2.01 1.91 1.87 1.88 1.97 1.94
1.57 1.55 1.51 1.53 1.62 1.77 1.88 1.90 1.88 1.87 1.91 1.85 1.71 1.44 1.22 1.11 1.19 1.32 1.46 1.57 1.63 1.66 1.68 1.71 1.75 1.72 1.71 1.77 1.81 1.81 1.88 1.92 1.92 1.92 1.98 1.99 1.95 1.93 1.89 1.88 1.89 1.92 1.99
1.53 1.51 1.36 1.34 1.54 1.65 1.72 1.80 1.75 1.68 1.65 1.65 1.55 1.31 1.18 1.11 1.22 1.36 1.51 1.55 1.56 1.59 1.58 1.59 1.56 1.56 1.56 1.60 1.65 1.69 1.74 1.77 1.77 1.79 1.86 1.91 1.90 1.86 1.85 1.87 1.90 1.95 1.99
1.29 1.40 1.39 1.38 1.48 1.50 1.54 1.69 1.72 1.70 1.70 1.67 1.51 1.34 1.25 1.29 1.37 1.47 1.55 1.54 1.47 1.47 1.48 1.50 1.49 1.47 1.41 1.44 1.49 1.54 1.63 1.67 1.65 1.65 1.69 1.70 1.74 1.75 1.73 1.72 1.74 1.83 1.88
1.01 1.17 1.20 1.17 1.20 1.28 1.39 1.55 1.63 1.59 1.59 1.65 1.58 1.46 1.42 1.48 1.51 1.54 1.56 1.51 1.44 1.46 1.46 1.42 1.36 1.29 1.25 1.32 1.36 1.32 1.30 1.30 1.32 1.37 1.45 1.48 1.55 1.63 1.62 1.61 1.68 1.75 1.87
0.96 1.08 1.05 1.00 0.99 1.09 1.23 1.37 1.43 1.40 1.37 1.35 1.31 1.26 1.28 1.35 1.41 1.40 1.37 1.34 1.31 1.31 1.27 1.24 1.23 1.18 1.11 1.07 1.07 1.05 1.10 1.07 1.01 1.03 1.14 1.27 1.34 1.48 1.60 1.65 1.72 1.80 1.84
0.94 1.01 0.99 0.90 0.87 0.97 1.16 1.27 1.33 1.36 1.37 1.33 1.28 1.25 1.25 1.28 1.24 1.22 1.23 1.23 1.21 1.19 1.15 1.11 1.07 1.01 0.97 0.93 0.90 0.94 0.94 0.89 0.86 0.91 0.93 1.03 1.17 1.32 1.43 1.50 1.54 1.68 1.78